RH
54 57 56 70 59 44 36 33 36 37 35 31 34 35 49 46 44 49 54 53 54 49 40 30 26 27 32 38 41 42 43 44 44 39 41 40 41 42 43 43 44 46 46
53 46 50 61 66 53 43 40 39 40 36 34 32 35 38 36 35 32 44 52 53 47 45 38 34 31 32 37 44 48 48 42 44 45 44 44 45 46 48 50 48 48 49
58 51 49 48 67 65 70 55 50 43 38 35 36 34 37 38 38 41 37 49 46 44 48 47 38 34 36 40 46 52 51 46 43 50 50 48 49 47 50 52 52 53 55
57 55 59 56 54 65 68 74 69 60 49 44 41 40 37 38 40 43 42 38 42 44 45 48 45 39 38 43 50 56 54 48 43 46 51 48 48 49 47 50 58 55 56
42 45 59 62 57 56 56 70 77 74 66 54 47 45 48 42 42 47 48 44 44 45 44 46 47 45 44 44 50 55 56 47 43 44 45 45 46 47 47 50 56 58 48
35 47 56 54 58 62 62 63 65 64 69 75 60 53 49 53 46 48 54 54 53 54 48 51 53 58 53 51 49 52 57 51 46 47 48 49 44 47 52 50 50 56 62
23 26 31 41 47 56 58 64 63 61 63 60 65 63 57 51 53 51 50 56 72 72 65 56 56 57 66 66 60 58 64 65 55 50 55 59 61 55 52 52 49 48 58
28 27 25 26 30 38 47 49 68 70 70 69 59 57 58 60 56 57 54 52 61 78 79 74 61 60 64 76 76 72 70 72 61 61 62 73 80 82 62 63 63 52 57
55 57 28 30 25 22 25 24 48 71 73 75 73 68 66 64 66 64 64 61 58 61 71 84 84 75 74 72 78 76 69 65 68 74 76 71 86 98 97 100 100 86 69
66 89 100 100 100 36 22 22 27 49 66 73 74 77 76 70 68 67 70 64 67 67 60 64 80 84 86 79 74 73 73 72 70 74 79 81 81 77 68 98 100 100 100
35 74 82 100 100 93 88 65 35 25 35 52 63 70 73 74 74 76 75 73 65 70 71 66 68 82 85 89 85 81 85 93 100 99 98 83 70 65 62 78 100 100 81
16 62 84 89 93 95 96 96 84 52 41 28 34 41 64 75 77 77 77 76 75 76 70 69 70 82 88 93 83 79 91 91 80 75 91 70 66 80 83 69 98 100 92
17 32 48 91 90 98 100 100 100 100 92 56 36 26 29 54 82 90 81 80 76 75 77 75 74 84 100 95 84 75 71 74 97 100 100 100 80 82 95 100 100 100 97
25 17 15 42 75 91 100 100 100 100 83 100 84 40 26 25 36 59 75 81 73 74 76 75 73 75 94 100 100 97 94 95 100 100 100 100 94 84 100 100 100 100 100
39 20 20 16 49 52 74 97 100 100 100 99 99 76 27 25 24 25 26 54 85 84 83 79 75 70 74 88 100 100 100 100 93 92 100 92 91 100 100 86 96 89 77
45 44 29 24 21 22 38 65 67 87 68 66 70 93 59 54 33 31 34 24 26 30 58 84 88 76 77 76 80 100 100 97 94 98 100 100 100 100 100 69 68 61 54
45 46 44 30 26 29 22 22 24 59 62 46 45 69 74 58 68 63 67 44 42 29 28 32 75 91 84 92 92 100 100 100 100 100 100 100 100 100 100 100 100 83 76
28 44 50 40 31 32 30 23 20 35 47 25 28 42 66 49 54 87 78 48 41 50 36 26 28 70 75 91 91 100 98 99 100 100 100 100 100 100 100 100 100 64 48
14 23 23 29 26 29 36 26 21 20 24 27 40 40 43 41 32 28 36 55 69 84 51 41 43 40 55 74 69 82 92 100 100 100 100 100 100 100 100 91 62 94 78
10 13 17 17 24 23 28 25 23 22 30 37 47 53 49 37 25 26 51 53 81 82 100 99 72 66 80 74 70 80 98 100 100 100 100 100 100 100 99 90 100 88 63
8 9 12 13 16 20 24 24 24 28 30 32 32 44 37 41 35 42 43 46 63 55 54 52 62 76 65 77 97 88 100 100 100 100 100 100 100 100 95 84 84 69 57
6 9 9 11 12 14 19 24 22 22 25 30 33 39 49 48 53 47 42 36 37 42 54 42 31 31 50 58 90 98 100 100 100 100 100 100 100 100 95 80 80 77 57
4 7 9 8 11 13 16 20 20 24 27 33 40 41 45 38 46 48 53 47 32 43 64 44 33 33 46 88 100 100 100 100 100 100 100 100 100 90 100 78 61 63 61
4 4 6 8 9 11 12 16 21 28 37 46 40 46 43 41 57 50 48 36 38 50 60 56 44 46 58 100 100 100 100 96 100 100 100 100 100 76 91 75 75 81 68
2 4 6 8 8 13 17 20 28 38 42 52 41 47 51 42 41 58 39 52 60 49 58 58 46 67 100 100 100 100 100 100 100 100 100 92 100 100 92 99 100 100 100
2 2 3 5 7 10 23 33 37 37 42 33 42 38 40 44 48 56 54 45 47 50 61 64 39 76 100 100 100 100 100 100 100 100 100 100 100 100 100 100 100 97 97
Wind_Speed
48 47 45 43 39 37 36 35 34 31 28 28 25 24 25 25 23 22 22 19 18 19 19 17 14 13 11 11 12 14 14 15 16 16 17 17 17 18 19 18 19 19 19
55 52 50 46 43 40 38 37 35 35 33 31 30 27 26 27 24 21 23 23 20 20 20 20 19 16 15 15 15 15 16 17 17 16 16 15 17 18 19 19 19 19 20
55 54 55 51 45 45 41 39 38 36 36 35 33 32 29 28 26 22 23 23 23 20 19 21 22 19 18 17 18 17 17 18 18 16 16 17 19 19 19 18 19 19 19
58 58 58 55 51 49 46 43 41 39 39 38 38 35 34 31 29 26 24 23 22 21 19 20 22 23 21 20 20 20 20 20 18 17 16 17 19 19 21 19 20 18 19
60 58 58 57 54 51 50 48 46 44 42 40 40 38 36 35 33 30 28 27 26 24 23 22 22 24 24 23 22 22 22 22 20 17 17 17 19 19 19 19 21 22 19
60 60 59 58 56 55 54 55 55 53 49 44 42 41 40 37 37 35 32 30 29 29 27 26 25 25 25 26 24 24 23 23 20 17 16 19 20 20 20 22 23 24 22
55 61 64 64 61 61 59 58 59 57 55 52 50 46 45 43 41 40 38 34 33 31 31 31 30 29 28 28 27 26 26 24 22 20 20 18 19 20 22 22 23 25 24
46 48 50 57 63 66 67 64 61 60 59 58 56 53 51 49 46 45 42 41 38 34 32 32 34 34 31 30 30 29 28 27 25 22 21 19 20 19 23 25 27 28 27
37 39 42 45 52 55 60 61 62 62 62 61 59 57 55 52 50 48 46 44 43 40 38 35 35 34 34 33 32 31 29 27 25 24 24 24 25 27 26 29 28 29 28
37 36 39 40 41 47 53 58 62 64 64 64 63 63 62 60 57 56 54 50 48 46 44 39 37 36 34 33 32 31 30 28 28 28 29 30 31 33 33 29 28 32 33
43 38 40 39 39 40 40 44 49 56 64 69 68 66 64 64 62 60 58 56 52 51 50 46 43 42 38 36 34 32 32 31 31 29 32 34 33 35 37 33 34 38 38
51 45 42 38 40 41 39 36 40 46 49 58 64 67 67 67 66 64 62 62 60 56 54 53 51 48 46 42 39 38 37 37 37 36 36 37 38 36 39 39 39 43 41
51 51 45 39 40 42 41 43 44 43 46 48 55 62 65 67 68 69 66 67 65 62 59 57 54 54 52 49 46 44 43 43 42 39 41 42 43 41 43 42 44 46 46
59 55 49 48 46 43 47 49 45 42 47 47 47 52 58 64 68 71 71 71 70 67 65 62 60 56 54 53 53 51 48 48 49 49 46 47 48 47 48 51 44 49 44
69 60 57 58 54 52 51 48 48 48 45 45 42 45 50 55 59 64 67 70 75 74 72 70 65 62 57 56 53 52 53 51 51 53 51 51 51 49 51 50 46 51 53
76 72 66 62 58 57 59 56 53 51 51 48 49 46 47 50 54 57 60 65 71 71 73 74 71 68 64 61 58 55 54 53 55 55 56 56 54 55 59 59 60 61 52
80 78 74 68 60 63 58 61 57 57 61 54 50 50 53 47 52 59 60 62 62 67 70 70 73 73 69 64 63 63 60 59 57 57 61 60 60 60 62 61 59 60 55
82 82 80 75 68 64 64 61 58 61 65 57 57 54 57 54 49 51 56 62 65 62 62 66 70 75 72 74 68 68 66 63 61 61 61 60 62 60 61 61 61 63 56
79 83 80 76 72 69 69 66 64 57 61 59 56 54 51 54 52 48 55 59 55 56 55 59 63 67 73 78 79 74 72 67 61 61 60 61 60 64 64 62 62 49 49
78 79 80 76 75 72 71 66 66 64 63 62 61 59 58 52 51 53 45 44 48 53 42 65 64 62 65 61 64 64 66 67 60 56 61 62 62 64 60 56 53 50 40
77 74 74 78 74 73 70 69 67 69 69 65 64 62 60 60 60 59 54 55 54 52 60 65 67 67 64 63 55 56 60 60 57 59 56 58 62 61 57 54 55 48 44
77 80 77 72 73 71 71 72 68 67 68 69 66 65 66 66 65 67 65 57 51 51 55 57 62 68 71 65 60 60 54 55 54 54 55 57 59 58 59 57 49 52 53
72 79 82 74 74 70 70 72 71 70 65 67 72 74 75 70 68 68 69 67 61 59 55 60 60 65 66 64 62 59 54 55 52 54 57 61 64 61 54 55 54 58 56
72 75 77 75 71 72 69 68 70 76 75 73 72 75 77 75 71 69 70 71 67 64 61 61 65 64 63 67 63 63 64 58 49 58 61 61 59 60 57 63 62 61 61
74 75 78 80 73 77 74 72 73 77 82 81 79 76 77 76 73 73 70 69 71 65 64 63 64 68 63 61 68 64 64 56 56 61 60 62 59 62 66 64 65 65 66
67 65 67 74 74 75 79 81 83 80 79 81 79 79 77 76 74 75 73 72 71 68 66 68 67 69 63 64 64 68 66 66 63 64 60 61 61 65 64 65 66 65 68
Wind_Direction
248 247 250 249 248 248 246 248 247 249 246 246 241 240 246 256 261 254 255 258 260 271 278 283 285 289 292 298 314 326 334 334 339 342 349 351 349 350 349 344 342 344 345
250 249 248 250 253 250 248 250 249 247 247 248 247 244 247 254 259 262 253 256 254 266 273 276 282 284 287 297 306 315 322 326 329 334 339 349 351 350 347 345 340 338 340
253 253 252 250 248 250 250 252 255 253 252 249 248 248 246 251 256 258 257 253 256 259 268 273 278 281 282 288 293 302 311 318 325 325 327 330 336 341 344 343 340 335 332
250 253 254 255 253 248 250 249 251 250 252 252 248 247 250 247 250 253 254 253 254 256 259 263 271 276 280 284 288 295 302 310 320 322 324 330 334 335 337 340 340 334 332
251 251 251 251 253 249 249 251 250 251 251 249 248 246 247 250 248 249 251 251 255 257 259 259 263 271 276 280 284 289 298 307 314 317 322 327 328 331 336 338 336 338 333
248 249 249 251 253 252 251 252 253 253 250 248 249 248 246 247 249 248 247 250 252 257 257 258 260 264 271 277 281 286 291 298 303 307 314 323 324 325 330 327 325 326 325
247 248 249 249 248 249 251 252 253 254 254 252 250 251 252 249 248 249 248 247 251 253 258 258 258 261 265 270 274 280 285 290 294 298 303 311 317 319 323 327 328 325 320
246 246 247 250 251 253 251 252 250 252 253 253 252 254 254 254 252 250 250 252 251 251 255 259 262 262 262 266 270 274 279 284 288 291 295 297 307 311 317 319 319 318 319
239 244 246 248 249 248 247 249 248 248 249 250 251 253 254 255 253 252 253 253 254 253 252 255 258 263 265 264 267 271 274 278 281 286 289 295 300 305 303 311 314 312 310
225 228 238 245 257 251 247 249 250 246 246 248 251 254 254 254 254 255 255 256 253 255 255 254 256 259 261 264 267 268 269 272 277 282 285 288 293 297 304 306 315 312 301
220 220 223 247 249 251 254 255 249 249 248 248 248 250 252 254 253 253 254 256 256 255 254 257 256 257 258 259 262 264 267 268 272 277 282 285 294 298 306 295 307 308 306
235 215 218 240 248 250 254 253 251 251 251 250 249 248 247 250 251 252 254 256 258 257 257 256 258 260 258 257 259 262 264 267 272 274 278 285 291 300 299 294 303 307 309
242 221 225 227 233 239 244 251 248 242 249 249 250 249 249 249 249 252 254 256 257 258 257 256 257 260 262 261 263 264 266 267 270 273 278 287 288 294 299 302 304 304 306
249 245 239 228 227 230 235 240 247 253 249 253 254 251 251 251 250 252 252 254 256 259 259 259 259 257 260 264 265 266 268 272 278 281 282 283 287 289 292 300 303 301 303
252 248 245 244 224 235 232 236 244 247 253 258 263 259 253 254 253 254 254 253 254 257 259 260 261 261 260 262 265 266 268 271 277 278 279 284 288 288 294 289 292 289 293
248 250 249 245 242 249 237 236 240 241 247 253 261 259 253 256 256 258 260 258 257 256 257 258 261 263 262 263 264 265 267 271 275 280 281 283 285 288 288 286 289 293 299
245 248 250 249 247 247 249 243 249 239 244 251 255 257 254 259 261 260 263 262 263 259 256 257 256 258 260 263 265 265 267 272 275 278 281 282 285 286 283 286 290 293 293
244 245 247 248 247 249 250 250 249 247 251 259 262 267 248 257 259 256 260 268 269 265 255 256 255 253 259 260 262 265 267 269 272 278 281 280 281 284 282 284 288 291 297
245 246 247 247 246 248 249 250 253 247 255 259 261 259 259 259 260 261 268 267 264 266 267 263 261 259 257 259 262 264 265 268 272 276 276 276 278 279 282 283 291 298 295
246 246 248 249 248 248 250 252 254 253 254 255 258 260 263 264 270 273 257 268 260 267 261 266 262 261 257 262 262 262 262 267 268 270 278 277 275 277 282 287 287 291 293
249 249 248 248 249 250 251 253 253 253 253 255 257 260 264 268 268 271 264 270 258 260 264 264 266 264 262 257 259 260 258 261 263 274 273 272 272 278 279 283 287 293 296
247 249 249 247 248 249 250 251 252 253 255 256 259 261 261 262 263 265 270 272 263 265 267 270 267 266 263 262 261 257 258 260 264 266 271 273 273 275 281 286 293 294 297
242 245 246 247 247 249 250 251 252 254 256 257 257 258 259 262 264 267 268 270 269 273 272 274 271 266 263 258 251 249 253 257 259 265 264 266 268 285 283 287 295 292 291
236 238 243 245 246 249 251 253 253 252 253 256 258 258 259 260 262 265 266 268 271 270 271 269 272 268 263 255 252 250 254 251 256 263 260 266 272 280 282 287 289 288 286
232 236 243 247 245 248 250 252 253 251 250 252 255 258 258 260 260 263 265 268 268 269 270 268 267 261 256 255 251 249 246 248 254 255 259 273 275 283 284 289 291 289 286
240 238 239 243 244 247 248 247 249 252 253 251 253 256 259 259 261 263 267 268 267 268 269 269 265 255 250 251 251 251 248 250 249 256 262 272 275 283 287 285 285 283 284